When you browse on this site, cookies collect data to enhance your experience and personalize the content and advertising you see.
Visit our Privacy Policy to learn more. By continuing to use the site, you agree to this use of cookies and data.
  • Em Portugal
  • Lista de países
  • Para 7 dias
  • Temperatura da água
  • Mapas de satélite
  • Mapa do tempo
  • Widgets de tempo
  • user-avatar
    Iniciar Sessão

    Previsão horária em Chien

    Hoje, 16 Fevereiro, Sábado

    Tempo Temperatura Precipitação Vento Pressão Humidade
    00:00 +26°C° 0 mm 1 m/s 740 mmHg 89%
    01:00 +26°C° 0 mm 1 m/s 740 mmHg 92%
    02:00 +25°C° 0 mm 1 m/s 740 mmHg 96%
    03:00 +25°C° 0 mm 1 m/s 740 mmHg 96%
    04:00 +25°C° 0 mm 1 m/s 740 mmHg 97%
    05:00 +23°C° 0 mm 0 m/s 740 mmHg 97%
    06:00 +26°C° 0 mm 1 m/s 740 mmHg 91%
    07:00 +27°C° 0 mm 1 m/s 741 mmHg 84%
    08:00 +28°C° 0 mm 1 m/s 741 mmHg 78%
    09:00 +31°C° 0 mm 1 m/s 741 mmHg 66%
    10:00 +34°C° 0 mm 1 m/s 741 mmHg 54%
    11:00 +37°C° 0 mm 1 m/s 741 mmHg 43%
    12:00 +39°C° 0 mm 1 m/s 740 mmHg 38%
    13:00 +40°C° 0 mm 1 m/s 739 mmHg 33%
    14:00 +41°C° 0 mm 1 m/s 739 mmHg 28%
    15:00 +39°C° 0 mm 1 m/s 738 mmHg 32%
    16:00 +38°C° 0 mm 2 m/s 738 mmHg 36%
    17:00 +36°C° 0 mm 2 m/s 738 mmHg 41%
    18:00 +34°C° 0.1 mm 2 m/s 739 mmHg 54%
    19:00 +31°C° 0.1 mm 2 m/s 739 mmHg 68%
    20:00 +28°C° 0.1 mm 2 m/s 740 mmHg 81%
    21:00 +28°C° 0 mm 2 m/s 740 mmHg 83%
    22:00 +27°C° 0 mm 1 m/s 740 mmHg 85%
    23:00 +27°C° 0 mm 1 m/s 741 mmHg 87%

    Amanhã, 17 Fevereiro, Domingo

    Tempo Temperatura Precipitação Vento Pressão Humidade
    00:00 +26°C° 0 mm 1 m/s 740 mmHg 90%
    01:00 +26°C° 0 mm 1 m/s 740 mmHg 92%
    02:00 +24°C° 0 mm 0 m/s 740 mmHg 94%
    03:00 +23°C° 0 mm 0 m/s 740 mmHg 95%
    04:00 +23°C° 0 mm 0 m/s 740 mmHg 96%
    05:00 +23°C° 0 mm 0 m/s 740 mmHg 98%
    06:00 +27°C° 0 mm 1 m/s 740 mmHg 88%
    07:00 +28°C° 0 mm 1 m/s 741 mmHg 79%
    08:00 +30°C° 0 mm 1 m/s 741 mmHg 70%
    09:00 +32°C° 0 mm 1 m/s 741 mmHg 60%
    10:00 +35°C° 0 mm 1 m/s 741 mmHg 51%
    11:00 +37°C° 0 mm 1 m/s 741 mmHg 42%
    12:00 +39°C° 0 mm 1 m/s 740 mmHg 39%
    13:00 +39°C° 0 mm 1 m/s 739 mmHg 36%
    14:00 +40°C° 0 mm 1 m/s 738 mmHg 33%
    15:00 +38°C° 0 mm 2 m/s 738 mmHg 40%
    16:00 +36°C° 0 mm 2 m/s 738 mmHg 47%
    17:00 +34°C° 0 mm 2 m/s 738 mmHg 54%
    18:00 +31°C° 0.8 mm 2 m/s 739 mmHg 65%
    19:00 +29°C° 0.8 mm 2 m/s 739 mmHg 77%
    20:00 +27°C° 0.8 mm 2 m/s 740 mmHg 88%
    21:00 +27°C° 0.2 mm 2 m/s 740 mmHg 90%
    22:00 +26°C° 0.2 mm 1 m/s 741 mmHg 92%
    23:00 +26°C° 0.2 mm 1 m/s 741 mmHg 94%

    Depois de amanhã, 18 Fevereiro, Segunda-feira

    Tempo Temperatura Precipitação Vento Pressão Humidade
    00:00 +26°C° 0 mm 1 m/s 741 mmHg 95%
    01:00 +25°C° 0 mm 1 m/s 740 mmHg 95%
    02:00 +25°C° 0 mm 1 m/s 740 mmHg 96%
    03:00 +25°C° 0 mm 1 m/s 740 mmHg 97%
    04:00 +25°C° 0 mm 1 m/s 739 mmHg 97%
    05:00 +24°C° 0 mm 1 m/s 739 mmHg 98%
    06:00 +26°C° 0 mm 1 m/s 740 mmHg 92%
    07:00 +27°C° 0 mm 1 m/s 740 mmHg 86%
    08:00 +28°C° 0 mm 1 m/s 741 mmHg 79%
    09:00 +31°C° 0 mm 1 m/s 740 mmHg 68%
    10:00 +33°C° 0 mm 1 m/s 740 mmHg 57%
    11:00 +36°C° 0 mm 1 m/s 740 mmHg 46%
    12:00 +35°C° 0 mm 1 m/s 739 mmHg 47%
    13:00 +35°C° 0 mm 1 m/s 738 mmHg 47%
    14:00 +35°C° 0 mm 1 m/s 737 mmHg 48%
    15:00 +34°C° 0.1 mm 1 m/s 737 mmHg 52%
    16:00 +34°C° 0.1 mm 2 m/s 737 mmHg 56%
    17:00 +32°C° 0.1 mm 2 m/s 737 mmHg 59%
    18:00 +31°C° 0 mm 2 m/s 738 mmHg 67%
    19:00 +29°C° 0 mm 2 m/s 738 mmHg 74%
    20:00 +28°C° 0 mm 2 m/s 739 mmHg 81%
    21:00 +27°C° 0 mm 2 m/s 739 mmHg 84%
    22:00 +27°C° 0 mm 2 m/s 740 mmHg 86%
    23:00 +26°C° 0 mm 1 m/s 740 mmHg 89%

    19 Fevereiro, Terça-feira

    Tempo Temperatura Precipitação Vento Pressão Humidade
    00:00 +26°C° 0 mm 1 m/s 739 mmHg 91%
    01:00 +26°C° 0 mm 1 m/s 739 mmHg 92%
    02:00 +25°C° 0 mm 1 m/s 738 mmHg 94%
    03:00 +25°C° 0 mm 1 m/s 738 mmHg 94%
    04:00 +25°C° 0 mm 1 m/s 738 mmHg 95%
    05:00 +25°C° 0 mm 1 m/s 738 mmHg 95%
    06:00 +26°C° 0 mm 1 m/s 739 mmHg 87%
    07:00 +28°C° 0 mm 1 m/s 739 mmHg 79%
    08:00 +29°C° 0 mm 1 m/s 740 mmHg 71%
    09:00 +32°C° 0 mm 1 m/s 740 mmHg 62%
    10:00 +34°C° 0 mm 1 m/s 740 mmHg 53%
    11:00 +36°C° 0 mm 1 m/s 739 mmHg 44%
    12:00 +36°C° 0.2 mm 1 m/s 738 mmHg 46%
    13:00 +35°C° 0.2 mm 1 m/s 737 mmHg 47%
    14:00 +35°C° 0.2 mm 1 m/s 736 mmHg 48%
    15:00 +35°C° 0.2 mm 2 m/s 736 mmHg 53%
    16:00 +34°C° 0.2 mm 2 m/s 736 mmHg 57%
    17:00 +32°C° 0.2 mm 2 m/s 737 mmHg 61%
    18:00 +30°C° 0.3 mm 2 m/s 737 mmHg 68%
    19:00 +29°C° 0.3 mm 2 m/s 738 mmHg 76%
    20:00 +27°C° 0.3 mm 2 m/s 739 mmHg 83%
    21:00 +27°C° 0 mm 2 m/s 739 mmHg 84%
    22:00 +27°C° 0 mm 2 m/s 739 mmHg 86%
    23:00 +27°C° 0 mm 2 m/s 739 mmHg 87%

    20 Fevereiro, Quarta-feira

    Tempo Temperatura Precipitação Vento Pressão Humidade
    00:00 +26°C° 0 mm 1 m/s 739 mmHg 89%
    01:00 +26°C° 0 mm 1 m/s 738 mmHg 90%
    02:00 +25°C° 0 mm 1 m/s 738 mmHg 92%
    03:00 +25°C° 0 mm 1 m/s 738 mmHg 92%
    04:00 +26°C° 0 mm 1 m/s 738 mmHg 92%
    05:00 +26°C° 0 mm 1 m/s 739 mmHg 92%
    06:00 +27°C° 0 mm 1 m/s 739 mmHg 86%
    07:00 +28°C° 0 mm 1 m/s 740 mmHg 80%
    08:00 +29°C° 0 mm 2 m/s 741 mmHg 73%
    09:00 +31°C° 0.2 mm 1 m/s 740 mmHg 68%
    10:00 +32°C° 0.2 mm 1 m/s 740 mmHg 62%
    11:00 +34°C° 0.2 mm 1 m/s 740 mmHg 56%
    12:00 +33°C° 1.7 mm 1 m/s 739 mmHg 59%
    13:00 +33°C° 1.7 mm 1 m/s 738 mmHg 63%
    14:00 +32°C° 1.7 mm 1 m/s 738 mmHg 66%
    15:00 +32°C° 0.9 mm 1 m/s 738 mmHg 69%
    16:00 +31°C° 0.9 mm 2 m/s 738 mmHg 72%
    17:00 +30°C° 0.9 mm 2 m/s 738 mmHg 75%
    18:00 +29°C° 0 mm 2 m/s 739 mmHg 79%
    19:00 +28°C° 0 mm 1 m/s 739 mmHg 82%
    20:00 +27°C° 0 mm 1 m/s 740 mmHg 86%
    21:00 +26°C° 0.1 mm 1 m/s 740 mmHg 89%
    22:00 +26°C° 0.1 mm 1 m/s 740 mmHg 91%
    23:00 +25°C° 0.1 mm 1 m/s 740 mmHg 94%

    21 Fevereiro, Quinta-feira

    Tempo Temperatura Precipitação Vento Pressão Humidade
    00:00 +25°C° 0 mm 1 m/s 740 mmHg 95%
    01:00 +25°C° 0 mm 1 m/s 739 mmHg 97%
    02:00 +25°C° 0 mm 1 m/s 739 mmHg 98%
    03:00 +25°C° 0 mm 1 m/s 739 mmHg 98%
    04:00 +25°C° 0 mm 1 m/s 739 mmHg 98%
    05:00 +25°C° 0 mm 1 m/s 739 mmHg 98%
    06:00 +26°C° 0 mm 1 m/s 740 mmHg 91%
    07:00 +27°C° 0 mm 1 m/s 741 mmHg 84%
    08:00 +29°C° 0 mm 1 m/s 741 mmHg 76%
    09:00 +31°C° 0 mm 1 m/s 741 mmHg 69%
    10:00 +33°C° 0 mm 1 m/s 741 mmHg 61%
    11:00 +33°C° 0 mm 0 m/s 741 mmHg 53%
    12:00 +35°C° 0 mm 1 m/s 740 mmHg 51%
    13:00 +36°C° 0 mm 1 m/s 739 mmHg 48%
    14:00 +36°C° 0 mm 1 m/s 738 mmHg 46%
    15:00 +35°C° 0 mm 1 m/s 738 mmHg 50%
    16:00 +34°C° 0 mm 1 m/s 738 mmHg 54%
    17:00 +33°C° 0 mm 1 m/s 738 mmHg 58%
    18:00 +31°C° 0.1 mm 1 m/s 739 mmHg 65%
    19:00 +30°C° 0.1 mm 2 m/s 740 mmHg 73%
    20:00 +28°C° 0.1 mm 2 m/s 740 mmHg 80%
    21:00 +28°C° 0 mm 2 m/s 740 mmHg 83%
    22:00 +27°C° 0 mm 1 m/s 740 mmHg 87%
    23:00 +26°C° 0 mm 1 m/s 740 mmHg 91%
    Mostrar mais